Погода в Ла-Серене

Чили     29°54′23″S   71°14′46″W
темп.,
°C
ветер,
м/с
пор.,
м/с
влажн.,
%
обл.,
%
осадки,
мм/ч
давл.,
гПа
погр.,
м
4 марта, чт
чт400:00+14ссз11950 0.0 101523
03:00+14ссз11940 0.0 101523
06:00+14ссв229610 0.0 101427
09:00+16сз228927 0.0 1015188
12:00+20зсз326995 0.0 1015399
15:00+21зсз436450 0.0 1013516
18:00+20зсз32681 0.0 1012402
21:00+15зсз11969 0.0 101234
5 марта, пт
пт500:00+14с119718 0.0 101423
03:00+14с119821 0.0 101323
06:00+14сз119844 0.0 101450
09:00+16ссз118969 0.0 1015188
12:00+17сз3482100 0.0 1015390
15:00+18зсз2274100 0.0 1014463
18:00+19з336727 0.0 1012459
21:00+15з119014 0.0 101324
6 марта, сб
сб600:00+13ю00940 0.0 101423
03:00+13сз01950 0.0 101323
06:00+12сз01970 0.0 101323
09:00+16ссв11810 0.0 1015146
12:00+21зсз32610 0.0 1015463
15:00+21зсз32610 0.0 1014518
18:00+20з33690 0.0 1012407
21:00+15сз12950 0.0 101429
7 марта, вс
вс700:00+14с119711 0.0 101430
03:00+14ссв11959 0.0 101331
06:00+13с00966 0.0 101423
09:00+16ссз11854 0.0 1016148
12:00+21сз43644 0.0 1015481
15:00+21зсз43642 0.0 1015507
18:00+19зсз32690 0.0 1014400
21:00+15сз12944 0.0 101433
8 марта, пн
пн800:00+14ссв129717 0.0 101542
03:00+14с119517 0.0 101426
06:00+13зсз119712 0.0 101324
09:00+16ссз118413 0.0 1015157
12:00+20зсз326714 0.0 1014467
15:00+22зсз43617 0.0 1013478
18:00+19зсз32704 0.0 1012406
21:00+16ссз129014 0.0 101260